Location: Gipe Farm
(40.9466°N, 95.5370°W)
Time: 00:57:29
(UTC-05:00)

Cosmos 1842 - Visible Passes

Search period start: 01 October 2014 00:00
Search period end: 11 October 2014 00:00
Orbit: 536 x 555 km, 82.5° (Epoch: 30 September)

Date Brightness Start Highest point End Pass type
(mag) Time Alt. Az. Time Alt. Az. Time Alt. Az.
01 Oct 4.8 05:57:20 10° SSE 06:01:00 39° E 06:04:42 10° NNE visible
02 Oct 4.6 05:51:38 10° SSE 05:55:20 41° E 05:59:04 10° NNE visible
03 Oct 4.5 05:45:55 10° SSE 05:49:39 44° E 05:53:26 10° NNE visible
04 Oct 4.3 05:40:12 10° SSE 05:43:58 47° E 05:47:47 10° NNE visible
05 Oct 4.1 05:34:29 10° S 05:38:17 50° E 05:42:07 10° NNE visible
06 Oct 4.0 05:28:49 10° S 05:32:34 53° E 05:36:27 10° NNE visible
07 Oct 3.8 05:24:52 26° SSE 05:26:52 57° E 05:30:46 10° NNE visible
08 Oct 3.7 05:20:34 53° SE 05:21:09 61° E 05:25:04 10° NNE visible
09 Oct 3.8 05:16:00 56° NE 05:16:00 56° NE 05:19:21 10° NNE visible
10 Oct 4.6 05:11:15 34° NNE 05:11:15 34° NNE 05:13:38 10° NNE visible
